485  
ASUS41 KAKQ 181915  
RWRAKQ  
 
REGIONAL WEATHER ROUNDUP  
NATIONAL WEATHER SERVICE WAKEFIELD VA  
300 PM EDT WED SEP 18 2019  
 
NOTE: "FAIR" INDICATES FEW OR NO CLOUDS BELOW 12,000 FEET WITH NO  
SIGNIFICANT WEATHER AND/OR S TO VISIBILITY
. * = DENOTES  
STATION MAY NOT REPORT PRECIPITATION (E.G., RAIN,SNOW,ETC.),
 
THUNDER OR FOG.  
 
VAZ042-051-052>054-056-182000-  
NORTHERN VIRGINIA  
 
CITY SKY/WX TMP DP RH WIND PRES REMARKS
 
WASH NATIONAL FAIR 79 49 34 E8 30.18F  
DULLES PTSUNNY 77 50 38 VRB6 30.19F  
FORT BELVOIR NOT AVBL  
QUANTICO PTSUNNY 79 51 37 E7 30.18F  
FREDERICKSBRG* FAIR 77 56 48 E9 30.17F  
STAFFORD* FAIR 78 49 36 CALM 30.22F  
WARRENTON FAIR 77 46 33 CALM 30.18F  
CULPEPER* CLOUDY 76 51 41 E3 30.19S  
MANASSAS* PTSUNNY 75 51 43 E10 30.18F  
LEESBURG* PTSUNNY 77 52 41 N7 30.20F  
WINCHESTER FAIR 73 48 40 NE6 30.19S  
FRONT ROYAL* FAIR 73 50 43 E5 30.19S  
LURAY* FAIR 75 50 41 NE7 30.19S  

 
 
VAZ048-049-060>072-079>083-182000-  
CENTRAL AND SOUTH CENTRAL VIRGINIA  
 
CITY SKY/WX TMP DP RH WIND PRES REMARKS
 
RICHMOND PTSUNNY 79 50 36 N9G20 30.17S  
CHESTERFIELD* FAIR 77 51 40 NE10 30.17F  
PETERSBURG* FAIR 78 47 34 N7 30.17F  
HANOVER FAIR 78 48 34 MISG 30.18F  
TAPPAHANNOCK* PTSUNNY 74 53 47 N8 30.19S  
QUINTON* FAIR 76 50 39 NE8 30.17S  
CHARLOTTSVILLE FAIR 76 53 44 NE9 30.18F  
GORDONSVILLE* FAIR 76 54 46 E6 30.18S  
ORANGE* FAIR 75 54 46 E3 30.18F  
LOUISA* PTSUNNY 75 51 42 CALM 30.22F  
BUMPASS* FAIR 76 47 36 E3 30.17F  
FARMVILLE* FAIR 79 51 37 E8 30.15F  
CREWE* MOCLDY 74 44 33 NE5 30.17F  
FORT PICKETT* MOCLDY 77 52 41 N12G18 30.17F  
CHASE CITY* FAIR 78 51 38 E10 30.16F  
CLARKSVILLE* FAIR 77 52 41 NE7 30.16S  
SOUTH HILL* PTSUNNY 76 53 44 N7 30.22S  
LAWRENCEVILLE* FAIR 73 51 45 N7 30.17S  
EMPORIA* FAIR 76 53 45 NE7 30.17S  

 
 
VAZ088>098-182000-  
SOUTHEAST VIRGINIA  
 
CITY SKY/WX TMP DP RH WIND PRES REMARKS
 
NORFOLK CLOUDY 73 56 54 NE20G28 30.15S  
VIRGINIA BEACH PTSUNNY 73 54 51 NE18G25 30.14S  
NORFOLK NAVAL PTSUNNY 73 55 53 E17G24 30.17S  
WEST POINT* FAIR 75 52 44 NE7 30.18S  
SALUDA* CLOUDY 72 56 57 N9 30.17S  
NEWPORT NEWS CLOUDY 72 56 57 NE8G17 30.16S  
LANGLEY AFB LGT RAIN 70 57 65 E15 30.16F  
FORT EUSTIS PTSUNNY 74 51 44 NE10 30.14S  
WILLIAMSBURG* FAIR 75 57 53 CALM 30.17S  
HR EXEC AP* CLOUDY 71 55 56 NE10 30.16S  
FRANKLIN* FAIR 76 52 42 NE10 30.15F  
US460-WAKEFLD FAIR 75 54 47 VRB3 30.16S  

 
 
VAZ020-022-025-037-045-182000-  
WEST CENTRAL AND SOUTHWEST VIRGINIA  
 
CITY SKY/WX TMP DP RH WIND PRES REMARKS
 
STAUNTON* FAIR 76 53 44 SE7 30.20F  
WAYNESBORO* CLOUDY 71 53 53 SE6 30.20F  
HOT SPRINGS VA PTSUNNY 66 55 68 CALM 30.27S  
LYNCHBURG PTSUNNY 78 54 43 VRB7 30.18F  
DANVILLE FAIR 81 54 39 N8G17 30.16S  
SOUTH BOSTON* FAIR 81 48 31 N3 30.15F  
MARTINSVILLE CLOUDY 72 63 73 NW5 30.21F  
ROANOKE PTSUNNY 75 61 61 S7 30.20F  
BLACKSBURG CLOUDY 65 61 85 SE6 30.25S  
DUBLIN* CLOUDY 69 59 71 E8 30.23S  
MARION* CLOUDY 66 61 82 E8 30.25S  
HILLSVILLE* CLOUDY 64 60 87 S5 30.23S  
RICHLANDS* CLOUDY 69 58 68 SE6 30.19F  
WISE* PTSUNNY 79 61 53 SE10 30.16F  
ABINGDON* CLOUDY 74 61 64 SE12 30.16F  

 
 
MDZ021>025-VAZ099-100-182000-  
SOUTHERN MARYLAND AND THE DELMARVA PENINSULA  
 
CITY SKY/WX TMP DP RH WIND PRES REMARKS
 
PATUXENT RIVER PTSUNNY 74 51 44 N9 30.18S  
BAY BRIDGE APT FAIR 75 54 46 N9 30.19F  
LEONARDTOWN FAIR 73 54 49 N5 30.19F  
DOVER NOT AVBL  
GEORGETOWN PTSUNNY 71 54 54 E16 30.20S  
EASTON PTSUNNY 75 52 43 NE7 30.22F  
CAMBRIDGE PTSUNNY 73 50 43 NE8G16 30.18S  
SALISBURY CLOUDY 72 54 53 NE13G23 30.18S  
TANGIER FAIR 73 55 53 N7 30.17S  
OCEAN CITY FAIR 70 53 54 NE13G26 30.18S  
WALLOPS ISLAND FAIR 71 54 54 NE22G29 30.17S  
ACCOMACK* CLOUDY 72 54 54 E13G20 30.16S  

 
 
NCZ012>017-030>032-182000-  
NORTH CENTRAL AND EASTERN NORTH CAROLINA  
 
CITY SKY/WX TMP DP RH WIND PRES REMARKS
 
ROANOKE RAPIDS FAIR 75 61 60 NE7 30.14F  
RALEIGH FAIR 78 51 38 E13 30.14F  
ELIZABETH CITY FAIR 74 54 49 NE25G33 30.12F  
AHOSKIE* PTSUNNY 73 53 48 NE7 30.14F  
EDENTON* NOT AVBL  
CURRITUCK* FAIR 73 56 55 NE17G29 30.13S  
KILL DEVIL HLS PTSUNNY 72 55 55 N12G22 30.10S  
MANTEO NOT AVBL  
CAPE HATTERAS FAIR N/A N/A N/A NE15G29 30.07S  
TARBORO* MOCLDY 75 54 48 N9 30.13F  
GOLDSBORO FAIR 78 56 46 N15G21 30.10F  
WASHINGTON FAIR 77 52 41 N16G23 30.12F  
GREENVILLE FAIR 79 54 41 NE14 30.13F  
NEW BERN PTSUNNY 76 55 48 NE16G25 30.11S  
WILMINGTON FAIR 81 54 39 NE17G26 30.07F  

 
 
VAZ048-182000-  
ELSEWHERE  
 
CITY SKY/WX TMP DP RH WIND PRES REMARKS
 
HARRISBURG PA FAIR 77 46 33 E10 30.20F  
BALTIMORE FAIR 78 51 38 NE6 30.18F  
ANNAPOLIS FAIR 77 51 40 VRB7 30.19F  
ANDREWS AFB NOT AVBL  
PHILADELPHIA FAIR 75 46 35 E5 30.21S  
HENDERSON NC FAIR 74 48 39 NE10G17 30.16S  
GREENSBORO PTSUNNY 75 58 55 NE9 30.16F  
ROCKY MOUNT CLOUDY 75 55 49 N14 30.14S  

 
 
VAZ100-182000-  
MARINE  
 
STATION/POSITION TIME TEMP WIND PRES WAVE SWELL
 
AIR SEA DIR/SP/G HT/PER HT/PER  
(UTC) (F) (DEG/KT/KT) (MB) (FT/S) (FT/S)  
CAPE MAY NJ 1824 68 74 70/ 8/ 15 1022.2  
LEWES DE 1824 68 72 70/ 20/ 24 1022.5  
15NM E FENWICK I 1850 67 72 30/ 19/ 25 1021.2R 7/ 8  
OCEAN-CITY-INLET 1824 69 73 70/ 11/ 17 1022.7  
44089 WALLOPS IS 1900 75 N/A 7/ 7 2/11  
WACHAPREAGUE VA 1824 69 72 50/ 17/ 22 1021.1  
THOMAS POINT MD 1900 70 76 350/ 9/ 10 1023.1F  
GOOSES REEF MD 1854 71 20/ 10/ 14 1023.0F  
COVE POINT MD 1824 70 360/ 11/ 14 1022.8  
SOLOMONS ISLAND 1824 71 78 360/ 9/ 12 1021.7  
BISHOPS HEAD MD 1824 71 76 90/ 9/ 12 1022.3  
PINEY POINT MD 1824 40/ 6/ 10 N/A  
POTOMAC MD 1854 71 76 70/ 12/ 14 1024.3F  
CAMBRIDGE MD 1824 72 77 30/ 9/ 13 1021.9  
LEWISETTA VA 1830 73 74 50/ 6/ 9 1021.8F  
RAPPAHANNOCK LGT 1824 40/ 12/ 15 1022.3  
STINGRAY PT 1854 71 77 140/ 12/ 14 1025.3F  
YORK RVR RNG VA 1824 70 40/ 13/ 19 1022.0  
YORKTOWN VA 1824 71 78 40/ 13/ 16 1021.2  
JAMESTOWN VA 1854 74 81 1021.5F  
DOMINION TERM VA 1824 70 30/ 5/ 11 1021.6  
KIPTOPEKE VA 1818 75 50/ 9/ 17 N/A  
CAPE HENRY VA 1824 70 30/ 20/ 23 1021.1  
WILLOUBY STN VA 1824 70 50/ 17/ 20 1020.7  
S CRANEY ISL VA 1824 71 50/ 19/ 25 1020.8  
CAPE HENRY BUOY 1830 75 N/A 7/ 8 2/11  
1ST LANDING BUOY 1850 71 70/ 19/ 25 1020.5F  
64NM E OF VA BCH 1850 69 70 30/ 23/ 29 1018.9S 11/11 7/11  
DUCK PIER NC 1824 71 30/ 24/ 30 1019.4  
44100 DUCK FRF 1900 75 N/A 9/10 3/11  
44056 DUCK FRF 1900 77 N/A 9/10 2/11  
OREGON INLET NC 1824 71 74 10/ 15/ 25 1018.9  
HATTERAS NC 1824 73 74 30/ 19/ 26 1018.1  
DIAMOND SHLS NC 1850 73 76 20/ 27/ 31 1016.9R 10/10 7/10  
CAPE LOOKOUT NC 1800 75 20/ 21/ 30 1018.3S  

 
 
 
CLICK HERE TO GO TO PREVIOUS BULLETINS.

The Nexlab VA Page
The Nexlab NC Page
The Nexlab MD Page Main Text Page